Weather in Stede Broec

Netherlands     52°41′55″N   5°15′01″E
temp.,
°C
wind,
m/s
gust,
m/s
humid.,
%
clouds,
%
prec.,
mm/h
press.,
hPa
HPBL,
m
27 november, sat
sat2701:00+8n1362100 1.6 982841
04:00+6s2285100 1.2 983361
07:00+5wsw449497 1.8 984229
10:00+5sw7896100 4.6 986592
13:00+5ssw101193100 13.9 987736
16:00+5ssw5590100 0.9 989526
19:00+5ssw558985 1.0 992434
22:00+4sw4494100 0.3 993400
28 november, sun
sun2801:00+5ne2686100 2.2 994688
04:00+6ne4782100 0.2 995472
07:00+8nne7866100 0.7 9961177
10:00+6nne111286100 2.0 9981034
13:00+8n101158100 3.6 9981613
16:00+7n8952100 0.5 9991547
19:00+7n9951100 0.8 10001708
22:00+7nnw91059100 0.5 10011393
29 november, mon
mon2901:00+7nnw81060100 2.2 10021478
04:00+7nw10135011 0.8 10021913
07:00+7nnw121473100 1.8 10031347
10:00+7nne910688 0.8 10061104
13:00+7nne786644 1.0 10081256
16:00+7nne5666100 0.1 1010957
19:00+6nw4477100 0.3 1012676
22:00+6w5774100 0.9 1012534
30 november, tue
tue3001:00+6wsw61076100 0.9 1011788
04:00+5sw111590100 0.2 1009964
07:00+8wsw101495100 2.4 1005795
10:00+10wnw111688100 0.8 1005808
13:00+11wnw101484100 1.2 1005896
16:00+10wnw101385100 0.3 1005886
19:00+10w91491100 0.4 1004665
22:00+10wsw111489100 0.6 1002885
1 december, wed
wed101:00+11wsw131886100 0.9 9991028
04:00+10sw152187100 1.0 9941438
07:00+11wsw15208797 3.4 9911040
10:00+9w13188297 0.6 9911236
13:00+10wnw121777100 1.1 9921429
16:00+9nw101377100 0.8 9941196
19:00+9nw7969100 1.0 995957
22:00+9nw4569100 0.1 996906